{"data":{"norad_id":63181,"epoch":"2026-05-25T02:15:08.659872Z","epoch_age_seconds":66404,"freshness":"FRESH","line1":"1 63181U 25047D   26145.09385023  .00000416  00000+0  70350-4 0  9994","line2":"2 63181  97.9567 330.6231 0008006 254.0765 105.9562 14.74320563 64659","mean_motion":14.74320563,"eccentricity":0.0008006,"inclination_deg":97.9567,"raan_deg":330.6231,"arg_perigee_deg":254.0765,"mean_anomaly_deg":105.9562,"bstar":7.035e-5,"rev_number":6465,"period_min":97.672109861226,"perigee_km":641.68431069773,"apogee_km":652.93345464506,"semimajor_km":7025.4458826714,"source":"CELESTRAK","updated_at":"2026-05-25T13:38:03.544300Z"}}